www.pogodaiklimat.ru

Погода и климат >> Архив погоды >> Мексика >> Acapulco


АРХИВ ПОГОДЫ в Acapulco

Время (UTC), дата Ветер
(напр.,м/с)
 
Видим.   Явления Облачность Т
(С)
Тd
(С)
f
(%)
Тe
(С)
Тes
(С)
Комфортность P
(гПа)
Po
(гПа)
Тmin
(С)
Tmax
(С)
R
(мм)
S
(см)
03 16.03 З 1 10 км 1/0 1500 м
[Ac und]
+25.9 +24.2 90 +36 +36 очень
душно
1014.4 1013.9
06 16.03 В 2 10 км 3/1 600 м
[Cu med, cong Ac und]
+24.9 +23.9 94 +34 +34 очень
душно
1015.8 1015.3 +20.2 +32.0
09 16.03 С 1 10 км туман 3/3 870 м
[Cu med, cong]
+24.1 +23.4 96 +32 +32 очень
душно
1015.3 1014.9
12 16.03 З 1 10 км дымка 5/3 870 м
[Cu med, cong Ac und]
+23.9 +23.3 96 +32 +32 очень
душно
1015.5 1015.0 +22.3 +32.0
15 16.03 С 1 20 км 5/1 900 м
[Cu hum Ac trans]
+26.8 +23.0 80 +36 +41 очень
душно
1017.2 1016.6
18 16.03 ЮЗ 2 20 км 1/1 900 м
[Cu hum]
+30.6 +23.4 65 +41 +59 опасность
перегрева
1016.2 1015.9 +22.3 +31.8
21 16.03 ЮЗ 3 20 км 1/1 900 м
[Cu med, cong]
+30.6 +24.3 69 +43 +53 опасность
перегрева
1013.9 1013.1
00 17.03 З 2 20 км 5/1 600 м
[Cu med, cong Ac trans]
+30.0 +24.3 72 +42 +43 опасность
перегрева
1013.2 1012.9 +22.3 +32.2
03 17.03 З 1 10 км 3/1 900 м
[Cu med, cong Ac trans]
+26.8 +24.2 86 +37 +37 очень
душно
1014.8 1014.3
06 17.03 С 1 10 км 1/1 600 м
[Cu hum]
+25.0 +23.6 92 +34 +34 очень
душно
1013.5 1016.0 +22.3 +32.2
09 17.03 ЮЗ 1 10 км местами туман поземный туман 1/1 900 м
[]
+23.8 +22.9 95 +32 +32 очень
душно
1015.5 1015.0
12 17.03 С 1 10 км 1/1 900 м
[Cu hum]
+22.8 +22.2 96 +31 +31 очень
душно
1015.8 1015.2 +20.8 +32.2
15 17.03 СЗ 1 19 км дымка ясно +26.8 +23.3 81 +36 +44 очень
душно
1016.3 1015.8
18 17.03 Ю 3 19 км мгла 1/0 2000 м
[Ac trans]
+30.7 +22.9 63 +41 +56 опасность
перегрева
1015.1 1014.7 +20.8 +32.6
21 17.03 ЮЗ 3 19 км мгла 1/1 900 м
[Cu med, cong]
+31.7 +22.2 57 +41 +51 опасность
перегрева
1011.8 1011.4
00 18.03 ЮЗ 4 19 км мгла 3/3 600 м
[Cu Sc]
+29.8 +21.5 61 +38 +38 очень
душно
1012.0 1011.5 +20.8 +32.8
03 18.03 З 1 10 км 1/0
[Cs]
+26.6 +22.5 78 +35 +35 очень
душно
1014.4 1013.9
06 18.03 ЮВ 1 10 км 1/0
[Cs]
+24.8 +23.2 91 +33 +33 очень
душно
1016.2 1015.9 +20.8 +32.8
09 18.03 СЗ 1 10 км 3/0
[Cs]
+23.8 +22.0 90 +31 +31 очень
душно
1015.8 1015.5
12 18.03 СЗ 1 10 км 3/1 900 м
[Cu hum Cs]
+23.6 +22.0 91 +30 +30 очень
душно
1015.8 1015.5 +21.8 +32.8
15 18.03 СЗ 1 19 км 1/0 1500 м
[Ac und]
+27.0 +22.3 75 +35 +42 очень
душно
1017.2 1016.6
18 18.03 ЮЗ 3 19 км ясно +31.0 +23.1 63 +41 +58 опасность
перегрева
1016.2 1015.8 +21.8 +32.2
21 18.03 ЮЗ 4 19 км мгла 3/1 870 м
[Cu hum Ac und]
+31.3 +22.9 61 +41 +48 опасность
перегрева
1013.4 1013.0
00 19.03 З 3 19 км мгла ясно +30.2 +22.8 65 +40 +41 очень
душно
1012.5 1012.1 +21.8 +32.7
03 19.03 З 1 10 км ясно +26.6 +22.5 78 +35 +35 очень
душно
1014.6 1014.2
06 19.03 СВ 1 10 км ясно +23.8 +21.2 85 +30 +30 очень
душно
1015.5 1015.1 +21.8 +32.7
09 19.03 ЮВ 1 10 км туман ясно +21.7 +19.7 88 +27 +27 душно 1014.8 1014.4
12 19.03 СЗ 1 10 км туман ясно +20.8 +19.1 90 +26 +26 душно 1015.3 1014.9 +19.2 +32.7
15 19.03 С 1 19 км ясно +25.5 +18.2 64 +30 +38 душно 1017.0 1016.5
18 19.03 ЮЗ 3 19 км ясно +31.7 +19.0 47 +37 +53 опасность
солнечного
удара
1016.0 1015.5 +19.2 +32.9
21 19.03 ЮЗ 4 19 км ясно +31.6 +21.4 55 +40 +49 очень
душно
1013.0 1012.5
00 20.03 ЮЗ 3 19 км мгла ясно +30.2 +23.0 65 +40 +41 очень
душно
1013.0 1012.5 +19.2 +33.7
03 20.03 З 1 10 км ясно +26.5 +23.0 81 +35 +35 очень
душно
1014.4 1013.9
06 20.03 СЗ 1 10 км ясно +24.1 +22.0 88 +31 +31 очень
душно
1015.5 1015.1 +19.2 +33.7
09 20.03 З 1 10 км туман ясно +21.9 +19.4 86 +27 +27 душно 1014.6 1014.0
12 20.03 З 1 10 км туман ясно +20.4 +16.6 79 +25 +25 комфорт 1015.1 1014.6 +18.8 +33.7
15 20.03 С 1 20 км мгла ясно +26.1 +17.5 59 +30 +38 душно 1016.7 1016.3
18 20.03 ЮЗ 2 20 км ясно +31.1 +20.1 52 +38 +57 опасность
солнечного
удара
1016.3 1015.8 +32.6 +18.8
21 20.03 СЗ 3 20 км мгла ясно +31.8 +23.5 62 +43 +54 опасность
перегрева
1012.7 1012.3
00 21.03 СЗ 2 20 км мгла ясно +30.1 +23.0 66 +40 +41 очень
душно
1011.8 1011.3 +18.8 +33.7
03 21.03 З 2 10 км ясно +27.2 +23.4 80 +37 +37 очень
душно
1014.1 1013.7
06 21.03 СЗ 1 10 км ясно +25.3 +22.0 82 +33 +33 очень
душно
1015.3 1014.9 +18.8 +33.7
09 21.03 С 1 10 км туман ясно +23.3 +21.0 87 +31 +31 очень
душно
1015.3 1014.8
12 21.03 СЗ 2 10 км туман ясно +23.0 +20.1 84 +30 +30 очень
душно
1015.1 1014.7 +21.4 +33.7
15 21.03 З 1 19 км мгла ясно +27.0 +21.3 71 +34 +42 очень
душно
1016.2 1015.9
18 21.03 Ю 3 19 км мгла 1/0
[Cs]
+30.7 +23.4 65 +41 +58 опасность
перегрева
1014.6 1014.4 +21.4 +32.2
21 21.03 ЮЗ 5 19 км мгла 1/0
[Cs]
+31.8 +24.0 63 +43 +51 опасность
перегрева
1012.5 1012.3
00 22.03 ЮЗ 4 19 км мгла 1/1 600 м
[Cu hum]
+29.3 +23.7 72 +40 +41 очень
душно
1011.6 1011.3 +21.4 +33.0
03 22.03 З 1 10 км 3/1 900 м
[Cu hum Cs]
+26.8 +24.7 88 +38 +38 очень
душно
1013.9 1013.7
06 22.03 З 1 10 км 1/0
[Cs]
+25.1 +23.8 93 +34 +34 очень
душно
1015.3 1014.9 +21.4 +33.0
09 22.03 З 1 10 км ясно +24.1 +23.1 94 +32 +32 очень
душно
1013.2 1012.9
12 22.03 З 1 10 км 3/0
[Cs]
+23.2 +22.3 95 +32 +32 очень
душно
1012.7 1012.4 +21.5 +33.0
15 22.03 З 1 10 км 3/0
[Cs]
+23.2 +22.3 95 +32 +39 очень
душно
1012.7 1012.4 +21.5 +33.0
18 22.03 ЮЗ 3 19 км мгла 5/0
[Cs]
+30.8 +23.2 64 +41 +56 опасность
перегрева
1013.9 1013.3 +21.5 +31.8
21 22.03 ЮЗ 3 19 км мгла 5/0
[Cs]
+31.5 +23.6 63 +43 +53 опасность
перегрева
1011.8 1011.4

 

Местоположение метеостанции Acapulco (Мексика): широта 16.83 долгота -99.93 высота над уровнем моря 3 м.

В архиве по умолчанию представлена погода в Acapulco за последнюю неделю. Архивные данные за месяц целиком и за предыдущие месяцы, начиная с января 2011 года, Вы можете получить, выбрав интересующий диапазон дат из раскрывающегося списка и нажав кнопку "Ввод!".

Внимание! Время в таблицах - всемирное. Для получения местного времени необходимо прибавить поправку, которая в Acapulco равна -6 ч.

Смотрите также архив погоды в соседних городах и на ближайших метеорологических станциях:

Погода в Chilpancingo (Мексика) (92 км)
Погода в Zacatepec (Мексика) (223 км)
Погода в Cuernavaca (Мексика) (240 км)
Погода в Huajuapan De Leon (Мексика) (253 км)
Погода в Toluca (Мексика) (274 км)
Погода в Geografia Unam (Мексика) (288 км)
Погода в Mexico City (Мексика) (297 км)
Погода в Puebla (Мексика) (310 км)
Погода в Tlaxcala Airport (Мексика) (329 км)
Погода в Tlaxcala (Мексика) (329 км)

Пояснения к столбцам:

Ветер - указаны скорость ветра в м/с - средняя за 10 мин, порывы в срок и между сроками (в фигурных скобках) и направление, откуда дует ветер: С - северный, СВ - северо-восточный, В - восточный, ЮВ - юго-восточный, Ю - южный, ЮЗ - юго-западный, З - западный, СЗ - северо-западный.
Видимость - горизонтальная дальность видимости в метрах или километрах. При видимости от 1 до 10 км при отсутствии осадков обычно наблюдается дымка, при ухудшении видимости до 1 км и менее - туман. В сухую погоду видимость может ухудшаться дымом, пылью или мглою.
Явления - указаны атмосферные явления, наблюдавшиеся в срок или в последний час перед сроком; фигурными скобками обозначены явления, наблюдавшиеся между сроками (за 1-3 часа до срока); квадратными скобками обозначены град или гололедные отложения с указанием их диаметра в мм.
Облачность - указаны через наклонную черту общая и нижняя облачность в баллах и высота нижней границы облаков в метрах; квадратными скобками обозначены формы облаков: Ci - перистые, Cs - перисто-слоистые, Cc - перисто-кучевые, Ac - высококучевые, As - высокослоистые, Sc - слоисто-кучевые, Ns - слоисто-дождевые, Cu - кучевые, Cb - кучево-дождевые. Подробнее классификацию облаков см. в Атласе облаков (PDF).
T - Температура воздуха - температура, измеренная на высоте 2 м над землей.
Td - Температура точки росы - температура, при понижении до которой содержащийся в воздухе водяной пар достигнет насыщения.
f - Относительная влажность воздуха - влажноcть воздуха, измеренная на высоте 2 м над землей.
Te - Эффективная температура - температура, которую ощущает одетый по сезону человек в тени. Характеристика душности погоды. При расчете учитывается влияние влажности воздуха и скорости ветра на теплоощущения человека.
Tes - Эффективная температура на солнце - температура, которую ощущает человек, с поправкой на солнечный нагрев. Характеристика знойности погоды. Зависит от высоты солнца над горизонтом, облачности и скорости ветра. Ночью, в пасмурную погоду, а также при ветре 12 м/с и более поправка равна нулю.
P - Атмосферное давление - приведенное к уровню моря атмосферное давление.
Po - Атмосферное давление - измеренное на уровне метеостанции атмосферное давление.
Tmin - Минимальная температура - минимум температуры воздуха на высоте 2 м над землей.
Tmax - Максимальная температура - максимум температуры воздуха на высоте 2 м над землей.
R - Количество осадков - Количество выпавших осадков, мм. При наведении курсора мыши на число - период времени, за который выпало указанное количество осадков.
S - Снежный покров - Высота снежного покрова, см. При наведении курсора мыши на число - состояние снежного покрова и степень покрытия местности в баллах.